Date String (YYYY-MM-DD hh:mm:ss) UTC,Instrument flags,Ambient pressure (hPa),Sample flow (lpm),Bypass flow (lpm),Sample temperature (°C),Ambient temperature (°C),ASC tube jacket temperature (°C),LED temperature (°C),Box temperature (°C),Sample RH (%),Span deviation,Mass concentration (μg/m³),Mass concentration (μg/m³),Mass concentration (μg/m³)
DateTimeUTC,F1_M11,P_M11,Q1_M11,Q2_M11,T1_M11,T2_M11,T3_M11,T4_M11,T5_M11,U1_M11,ZSPAN_M11,X0_M11,X2_M11,X1_M11
2022-11-20 16:00:00,,0829.4,4.98,0.00,22.8,21.7,00.0,31.6,24.7,09.4,0000.0,0011.99,0004.46,0003.86
2022-11-20 16:01:00,,0829.5,5.00,0.00,22.9,21.7,00.0,31.6,24.7,09.4,0000.0,0011.95,0004.46,0003.88
2022-11-20 16:02:00,,0829.5,5.00,0.00,22.9,21.7,00.0,31.6,24.7,09.5,0000.0,0011.95,0004.49,0003.91
2022-11-20 16:03:00,,0829.5,4.99,0.00,22.9,21.7,00.0,31.6,24.7,09.5,0000.0,0012.52,0004.50,0003.92
2022-11-20 16:04:00,,0829.5,5.01,0.00,22.9,21.7,00.0,31.6,24.8,09.4,0000.0,0012.06,0004.53,0003.95
2022-11-20 16:05:00,,0829.5,4.99,0.00,22.9,21.7,00.0,31.7,24.8,09.3,0000.0,0011.53,0004.58,0003.99
2022-11-20 16:06:00,,0829.6,4.99,0.00,22.9,21.7,00.0,31.7,24.8,09.3,0000.0,0010.72,0004.59,0004.02
2022-11-20 16:07:00,,0829.6,5.02,0.00,22.9,21.7,00.0,31.7,24.8,09.3,0000.0,0010.24,0004.66,0004.05
2022-11-20 16:08:00,,0829.6,4.98,0.00,22.9,21.7,00.0,31.7,24.8,09.4,0000.0,0009.90,0004.63,0004.07
2022-11-20 16:09:00,,0829.6,5.01,0.00,22.9,21.7,00.0,31.7,24.8,09.4,0000.0,0009.89,0004.63,0004.10
2022-11-20 16:10:00,,0829.5,4.99,0.00,22.9,21.8,00.0,31.7,24.8,09.3,0000.0,0009.32,0004.65,0004.13
2022-11-20 16:11:00,,0829.5,4.99,0.00,22.9,21.8,00.0,31.7,24.8,09.3,0000.0,0009.10,0004.68,0004.15
2022-11-20 16:12:00,,0829.4,5.02,0.00,22.9,21.8,00.0,31.7,24.8,09.2,0000.0,0009.13,0004.69,0004.16
2022-11-20 16:13:00,,0829.5,4.98,0.00,23.0,21.8,00.0,31.7,24.8,09.0,0000.0,0009.31,0004.76,0004.21
2022-11-20 16:14:00,,0829.5,5.02,0.00,23.0,21.8,00.0,31.7,24.8,09.1,0000.0,0009.72,0004.80,0004.25
2022-11-20 16:15:00,,0829.5,4.99,0.00,23.0,21.8,00.0,31.7,24.8,09.1,0000.0,0009.53,0004.85,0004.29
2022-11-20 16:16:00,,0829.6,5.00,0.00,23.0,21.8,00.0,31.8,24.8,08.9,0000.0,0010.34,0004.91,0004.31
2022-11-20 16:17:00,,0829.6,5.01,0.00,23.0,21.8,00.0,31.8,24.8,09.1,0000.0,0010.76,0004.95,0004.33
2022-11-20 16:18:00,,0829.6,4.99,0.00,23.0,21.8,00.0,31.8,24.8,09.2,0000.0,0011.35,0005.02,0004.34
2022-11-20 16:19:00,,0829.6,5.01,0.00,23.0,21.8,00.0,31.8,24.9,09.3,0000.0,0011.95,0005.03,0004.34
2022-11-20 16:20:00,,0829.5,4.99,0.00,23.0,21.8,00.0,31.8,24.9,09.1,0000.0,0012.37,0005.09,0004.35
2022-11-20 16:21:00,,0829.6,5.00,0.00,23.0,21.9,00.0,31.8,24.9,09.2,0000.0,0012.38,0005.10,0004.37
2022-11-20 16:22:00,,0829.6,5.01,0.00,23.0,21.9,00.0,31.8,24.9,09.3,0000.0,0012.99,0005.11,0004.38
2022-11-20 16:23:00,,0829.6,5.00,0.00,23.0,21.9,00.0,31.8,24.9,09.1,0000.0,0013.31,0005.07,0004.37
2022-11-20 16:24:00,,0829.6,5.00,0.00,23.0,21.9,00.0,31.8,24.9,09.3,0000.0,0013.99,0005.02,0004.34
2022-11-20 16:25:00,,0829.7,4.99,0.00,23.1,21.9,00.0,31.8,24.9,09.3,0000.0,0013.59,0004.96,0004.30
2022-11-20 16:26:00,,0829.6,5.01,0.00,23.1,21.9,00.0,31.9,24.9,09.4,0000.0,0013.09,0004.87,0004.25
2022-11-20 16:27:00,,0829.6,4.99,0.00,23.1,21.9,00.0,31.9,24.9,09.4,0000.0,0012.08,0004.76,0004.18
2022-11-20 16:28:00,,0829.6,5.02,0.00,23.1,21.9,00.0,31.9,24.9,09.4,0000.0,0011.98,0004.67,0004.14
2022-11-20 16:29:00,,0829.5,4.98,0.00,23.1,21.9,00.0,31.9,24.9,09.3,0000.0,0011.59,0004.61,0004.11
2022-11-20 16:30:00,,0829.6,5.02,0.00,23.1,21.9,00.0,31.9,24.9,09.4,0000.0,0010.88,0004.53,0004.09
2022-11-20 16:31:00,,0829.6,4.98,0.00,23.1,21.9,00.0,31.9,24.8,09.2,0000.0,0010.59,0004.48,0004.09
2022-11-20 16:32:00,,0829.6,5.02,0.00,23.1,21.8,00.0,31.9,24.8,08.7,0000.0,0010.88,0004.52,0004.07
2022-11-20 16:33:00,,0829.6,4.99,0.00,23.1,21.8,00.0,31.9,24.9,08.6,0000.0,0010.55,0004.51,0004.06
2022-11-20 16:34:00,,0829.5,5.00,0.00,23.1,21.8,00.0,31.9,24.9,08.8,0000.0,0011.26,0004.54,0004.06
2022-11-20 16:35:00,,0829.5,4.99,0.00,23.1,21.8,00.0,31.9,24.9,09.1,0000.0,0010.73,0004.53,0004.07
2022-11-20 16:36:00,,0829.5,5.00,0.00,23.1,21.9,00.0,31.9,24.9,09.0,0000.0,0010.48,0004.55,0004.08
2022-11-20 16:37:00,,0829.6,5.00,0.00,23.1,21.9,00.0,31.9,24.9,08.9,0000.0,0010.84,0004.62,0004.11
2022-11-20 16:38:00,,0829.6,5.00,0.00,23.1,21.9,00.0,31.9,24.9,08.8,0000.0,0011.47,0004.67,0004.16
2022-11-20 16:39:00,,0829.6,5.00,0.00,23.1,21.9,00.0,31.9,24.9,08.9,0000.0,0011.78,0004.72,0004.19
2022-11-20 16:40:00,,0829.9,4.99,0.00,23.1,21.9,00.0,32.0,24.9,09.1,0000.0,0011.86,0004.74,0004.19
2022-11-20 16:41:00,,0829.7,5.01,0.00,23.1,22.0,00.0,32.0,25.0,09.1,0000.0,0012.07,0004.78,0004.20
2022-11-20 16:42:00,,0829.7,4.99,0.00,23.2,22.0,00.0,32.0,25.0,08.9,0000.0,0012.21,0004.78,0004.21
2022-11-20 16:43:00,,0829.8,5.01,0.00,23.2,22.0,00.0,32.0,25.0,08.9,0000.0,0012.27,0004.77,0004.22
2022-11-20 16:44:00,,0829.8,4.99,0.00,23.2,22.0,00.0,32.0,25.0,09.2,0000.0,0012.14,0004.81,0004.25
2022-11-20 16:45:00,,0829.8,5.01,0.00,23.2,22.0,00.0,32.0,25.0,09.1,0000.0,0011.27,0004.85,0004.27
2022-11-20 16:46:00,,0829.8,5.00,0.00,23.2,22.1,00.0,32.0,25.0,09.1,0000.0,0011.33,0004.88,0004.29
2022-11-20 16:47:00,,0829.7,5.01,0.00,23.2,22.1,00.0,32.0,25.0,08.9,0000.0,0012.21,0004.92,0004.34
2022-11-20 16:48:00,,0829.7,4.99,0.00,23.2,22.1,00.0,32.0,25.0,09.0,0000.0,0012.31,0004.96,0004.40
2022-11-20 16:49:00,,0829.7,5.01,0.00,23.2,22.1,00.0,32.0,25.0,09.0,0000.0,0011.91,0005.03,0004.49
2022-11-20 16:50:00,,0829.7,4.99,0.00,23.3,22.1,00.0,32.0,25.1,09.0,0000.0,0011.56,0005.11,0004.59
2022-11-20 16:51:00,,0829.7,5.01,0.00,23.3,22.1,00.0,32.0,25.1,09.1,0000.0,0011.72,0005.19,0004.69
2022-11-20 16:52:00,,0829.8,4.99,0.00,23.3,22.2,00.0,32.1,25.1,09.1,0000.0,0011.59,0005.23,0004.77
2022-11-20 16:53:00,,0829.8,5.00,0.00,23.3,22.2,00.0,32.1,25.1,09.0,0000.0,0011.57,0005.33,0004.89
2022-11-20 16:54:00,,0829.8,5.00,0.00,23.3,22.2,00.0,32.1,25.1,09.1,0000.0,0011.51,0005.43,0005.00
2022-11-20 16:55:00,,0829.8,5.00,0.00,23.3,22.2,00.0,32.1,25.1,09.1,0000.0,0012.15,0005.51,0005.07
2022-11-20 16:56:00,,0829.7,5.01,0.00,23.3,22.2,00.0,32.1,25.1,09.2,0000.0,0012.42,0005.56,0005.14
2022-11-20 16:57:00,,0829.7,5.00,0.00,23.3,22.2,00.0,32.1,25.1,09.1,0000.0,0012.68,0005.64,0005.23
2022-11-20 16:58:00,,0829.7,5.00,0.00,23.3,22.2,00.0,32.1,25.1,09.0,0000.0,0012.03,0005.70,0005.32
2022-11-20 16:59:00,,0829.6,5.00,0.00,23.4,22.2,00.0,32.1,25.1,09.0,0000.0,0011.72,0005.74,0005.36
